Location: Unspecified
(41.5516°N, 88.1098°W)
Time: 09:31:59
(UTC-05:00)

Cosmos 2058 - Visible Passes

Search period start: 04 September 2015 00:00
Search period end: 14 September 2015 00:00
Orbit: 566 x 588 km, 82.5° (Epoch: 02 September)

Date Brightness Start Highest point End Pass type
(mag) Time Alt. Az. Time Alt. Az. Time Alt. Az.
07 Sep 6.0 22:48:29 10° N 22:48:35 11° N 22:48:35 11° N visible
08 Sep 6.0 22:52:34 10° N 22:52:45 11° N 22:52:45 11° N visible
09 Sep 6.0 22:56:44 10° N 22:56:56 11° N 22:56:56 11° N visible
10 Sep 6.1 23:00:57 10° NNW 23:01:08 11° NNW 23:01:08 11° NNW visible
11 Sep 6.2 23:05:14 10° NNW 23:05:20 11° NNW 23:05:20 11° NNW visible
13 Sep 5.6 21:37:17 10° NNE 21:37:30 11° NNE 21:37:30 11° NNE visible
